Location: Novokuznetsk
(53.7500°N, 87.1000°E)
Time: 13:48:12
(UTC+06:00)

ISS - Pass Details

Date: 20 July 2018
Orbit: 402 x 408 km, 51.6° (Epoch: 23 July)

Event Time Altitude Azimuth Distance (km) Brightness Sun altitude
Rises 03:12:57 0° 278° (W) 2,333 -0.3 -6.6°
Reaches altitude 10° 03:15:21 10° 262° (W) 1,471 -1.4 -6.3°
Maximum altitude 03:17:55 21° 211° (SSW) 981 -2.5 -6.1°
Drops below altitude 10° 03:20:28 10° 160° (SSE) 1,467 -1.3 -5.8°
Sets 03:22:51 0° 143° (SE) 2,325 -0.1 -5.6°
